Starlink 4297

operational
NORAD ID: 53543 Int'l Des: 2022-101 Owner: SPXS Country: US Constellation: starlink
LEOCIRCULAR

关于 Starlink 4297

正在加载描述...

实时位置

正在加载3D地球...

即将过境

高度历史

Altitude vs Time

uPlot chart will show altitude changes over time

两行轨道根数

1 53543U 22101S 25308.84802514 -.00000539 00000-0 -15806-4 0 9999
2 53543 53.2170 264.6247 0001370 94.4978 265.6171 15.08832825178144
Epoch: Nov 4, 2025 • Age: 7 hours

当前状态

高度 542.3 km
速度 7.59 km/s
星下点 -8.82°S, 8.03°W
发射日期 Aug 19, 2022
运行时间 3.2 years
类型 internet

技术详情

分类 Payload
质量 300.00 kg
干质量 290.00 kg
总质量 300.00 kg
长度 0.20 m
直径 2.80 m
跨度 9.00 m
形状 Box + pan
制造商 SPXS
平台类型 Starlink
阶段状态 In Orbit
所有者/国家 SPXS/US

大型星座

Loading constellations...